Location: Ergnies
(50.0854°N, 2.0375°E)
Time: 18:05:57
(UTC+00:00)

Cosmos 1269 Rocket - Visible Passes

Search period start: 11 April 2026 00:00
Search period end: 21 April 2026 00:00
Orbit: 769 x 774 km, 74.1° (Epoch: 11 April)

Date Brightness Start Highest point End Pass type
(mag) Time Alt. Az. Time Alt. Az. Time Alt. Az.
11 Apr 6.3 00:51:48 10° NW 00:52:55 14° WNW 00:52:55 14° WNW visible
11 Apr 6.3 20:52:01 10° NNE 20:54:10 12° NE 20:56:19 10° ENE visible
11 Apr 4.6 22:32:31 10° NNW 22:37:13 49° NE 22:37:13 49° NE visible
12 Apr 5.8 00:15:06 10° NW 00:17:32 22° WNW 00:17:32 22° WNW visible
12 Apr 5.0 21:56:39 10° N 22:01:28 34° NE 22:01:51 34° ENE visible
12 Apr 5.2 23:38:45 10° NW 23:42:11 34° WNW 23:42:11 34° WNW visible
13 Apr 5.5 21:20:54 10° N 21:25:10 24° NE 21:26:30 22° ENE visible
13 Apr 4.5 23:02:34 10° NNW 23:06:50 55° NW 23:06:50 55° NW visible
14 Apr 6.0 20:45:16 10° N 20:48:46 17° NE 20:51:11 13° ENE visible
14 Apr 4.0 22:26:30 10° NNW 22:31:31 76° NNE 22:31:31 76° NNE visible
15 Apr 6.2 00:09:57 10° NW 00:11:51 15° WNW 00:11:51 15° WNW visible
15 Apr 6.2 20:09:56 10° N 20:12:16 13° NE 20:14:35 10° ENE visible
15 Apr 4.3 21:50:32 10° NNW 21:55:42 52° ENE 21:56:12 51° E visible
15 Apr 5.6 23:33:12 10° NW 23:36:32 25° W 23:36:32 25° W visible
16 Apr 4.9 21:14:40 10° N 21:19:31 35° NE 21:20:55 30° E visible
16 Apr 4.9 22:56:48 10° NW 23:01:15 40° W 23:01:15 40° W visible
17 Apr 5.5 20:38:53 10° N 20:43:14 25° NE 20:45:39 18° E visible
17 Apr 4.1 22:20:36 10° NNW 22:25:50 64° WSW 22:25:59 64° WSW visible
18 Apr 5.9 20:03:14 10° N 20:06:50 18° NE 20:10:24 10° E visible
18 Apr 3.9 21:44:31 10° NNW 21:49:50 83° ENE 21:50:44 62° SE visible
18 Apr 6.1 23:28:06 10° WNW 23:31:04 16° W 23:31:04 16° W visible
19 Apr 6.1 19:27:51 10° N 19:30:21 13° NE 19:32:50 10° ENE visible
19 Apr 4.3 21:08:33 10° NNW 21:13:45 55° ENE 21:15:30 38° ESE visible
19 Apr 5.5 22:51:17 10° NW 22:55:32 25° W 22:55:51 25° WSW visible
20 Apr 4.9 20:32:40 10° NNW 20:37:34 37° NE 20:40:18 22° ESE visible
20 Apr 4.8 22:14:51 10° NW 22:19:44 39° WSW 22:20:39 36° SW visible
